Location: Tel Aviv
(32.0670°N, 34.7670°E)
Time: 08:12:23
(UTC+03:00)

BUGSAT 1 - Visible Passes

Search period start: 19 September 2024 00:00
Search period end: 29 September 2024 00:00
Orbit: 525 x 573 km, 98.1° (Epoch: 18 September)

Date Brightness Start Highest point End Pass type
(mag) Time Alt. Az. Time Alt. Az. Time Alt. Az.
19 Sep ? 21:27:10 12° NNW 21:27:10 12° NNW 21:27:30 10° NNW visible
20 Sep ? 21:22:38 12° NNW 21:22:38 12° NNW 21:22:54 10° NNW visible
21 Sep ? 21:18:06 11° NNW 21:18:06 11° NNW 21:18:15 10° NNW visible
22 Sep ? 21:13:32 10° NNW 21:13:32 10° NNW 21:13:35 10° NNW visible
